Preview of NWS' New Version of Forecast
This preview is not operational and should not be used for support decisions.

Regional Weather Roundup (RWR)

Issued by National Weather Service (NWS)

                            
000
ASUS44 KMEG 201210
RWRTN 
TENNESSEE HOURLY STATE WEATHER ROUNDUP
NATIONAL WEATHER SERVICE MEMPHIS TN
700 AM CDT WED MAR 20 2019

TNZ002-004-019-021-049-052-054-088>092-201300-
WEST TENNESSEE
  
CITY           SKY/WX    TMP DP  RH WIND       PRES   REMARKS
MEMPHIS INTL   FAIR      42  26  53 S8        30.24R                  
NWS MEMPHIS      N/A     38 N/A N/A MISG        N/A                   
JACKSON        FAIR      31  28  89 CALM      30.25S                  
DYERSBURG      FAIR      42  32  67 S5        30.24R                  
SOMERVILLE     MOCLDY    37  28  70 S3        30.23R                  
COVINGTON      PTCLDY    36  32  87 S3        30.23S                  
UNION CITY     PTCLDY    37  27  65 CALM      30.22R                  
BOLIVAR        PTCLDY    30  28  93 CALM      30.24S                  
PARIS          PTCLDY    37  23  56 SE7       30.23S WCI  32          
HUNTINGDON     CLEAR     37  25  60 CALM      30.23S                  
LEXINGTON      CLEAR     28  28 100 CALM      30.24S                  
SAVANNAH       CLEAR     30  28  93 CALM      30.25S                  
$$

TNZ008-025-027-028-033-062-065-066-201300-
NORTH MIDDLE TENNESSEE
  
CITY           SKY/WX    TMP DP  RH WIND       PRES   REMARKS
NASHVILLE      FAIR      33  26  75 S3        30.26R                  
DICKSON        SUNNY     43  18  36 CALM      30.23S                  
CLARKSVILLE    FAIR      31  28  89 S5        30.24F WCI  26          
LEBANON        SUNNY     30  27  86 CALM      30.25S                  
SMYRNA         FAIR      28  26  92 S3        30.28S                  
MURFREESBORO   SUNNY     30  27  86 CALM      30.25S                  
COOKEVILLE     CLEAR     25  23  93 CALM      30.26R                  
LIVINGSTON     SUNNY     39  16  38 SW5       30.24S                  
GALLATIN       SUNNY     30  27  86 CALM      30.29S                  
CROSSVILLE     FAIR      28  19  69 CALM      30.26R                  
ROCKWOOD       SUNNY     36  16  44 NW3       30.26R                  
$$

TNZ061-075-076-078-094-096-097-201300-
SOUTH MIDDLE TENNESSEE
  
CITY           SKY/WX    TMP DP  RH WIND       PRES   REMARKS
LAWRENCEBURG   SUNNY     30  28  93 CALM      30.24S                  
LEWISBURG      SUNNY     25  25 100 CALM      30.26S                  
FAYETTEVILLE   CLEAR     36  25  64 CALM      30.25S                  
TULLAHOMA      CLEAR     28  25  86 CALM      30.25S                  
WINCHESTER     CLEAR     30  27  86 CALM      30.26R                  
MCMINNVILLE    CLEAR     27  25  93 CALM      30.26S                  
COLUMBIA       CLEAR     30  30 100 CALM      30.25R                  
SHELBYVILLE    CLEAR     28  27  93 E3        30.26S                  
$$

TNZ017-018-042-046-047-201300-
NORTHEAST TENNESSEE
  
CITY           SKY/WX    TMP DP  RH WIND       PRES   REMARKS
TRI CITIES     FAIR      27  21  78 CALM      30.29R                  
ELIZABETHTON   FAIR      32  23  69 E5        30.28R WCI  27          
GREENEVILLE    SUNNY     36  19  51 CALM      30.26R                  
$$

TNZ012-013-036-069-073-074-201300-
CENTRAL EAST TENNESSEE
  
CITY           SKY/WX    TMP DP  RH WIND       PRES   REMARKS
KNOXVILLE      FAIR      31  24  75 CALM      30.28R                  
OAK RIDGE      FAIR      30  25  81 CALM      30.30R                  
DOWNTOWN KNOXV CLEAR     32  32 100 CALM      30.30R                  
GATLINBURG     CLEAR     27  25  93 CALM      30.28S                  
MORRISTOWN     CLEAR     32  23  69 CALM      30.26R                  
JACKSBORO      CLEAR     27  25  93 CALM      30.31S                  
$$

TNZ083-085-099-201300-
SOUTHEAST TENNESSEE
  
CITY           SKY/WX    TMP DP  RH WIND       PRES   REMARKS
CHATTANOOGA    FAIR      32  28  85 CALM      30.30R                  
DAYTON         SUNNY     28  27  93 CALM      30.29R FOG              
$$

SKY/WX REPORTED AS FAIR MEANS FEW OR NO CLOUDS BELOW
12 THOUSAND FEET.